Voltar ao catálogo

DELTA 1 DEB

AtivoSSO
NORAD 13569·DEBRIS·🇺🇸 United States

Lançado Mar 5, 1978 de Vandenberg Space Force Base

Loading…

Próximas Passagens (próximas 24 horas)

TLE

AtualizadoSource: Space-Track

Época: Sep 13, 2026, 20:21 UTC

1 13569U 78026FG  26256.84825692  .00001493  00000-0  66968-3 0  9997
2 13569  99.0797   4.1051 0094285 323.0543 163.4010 14.21757123295820

Acompanhe DELTA 1 DEB em tempo real com AllMySat

Download on the App Store